Overview Statistics Trail Chart Weather Telemetry Raw packets
 

This is the latest recevied weather packets stored in our database for station/object N5CSU. If no packets are shown the sender has not sent any weather packets the latest 10 day(s).

<< 49 50 51 52 53 54 55 >>
Time Temp. Humidity Pressure Rain* Wind** Luminosity Snow
1788284912 35° C 47% 1016.8 hPa 0 mm - 39 W/m² -
1788284608 36.11° C 46% 1017.1 hPa 0 mm - 33 W/m² -
1788284304 36.67° C 46% 1016.9 hPa 0 mm - 124 W/m² -
1788283998 36.11° C 46% 1017 hPa 0 mm - 403 W/m² -
1788283695 36.11° C 47% 1017.2 hPa 0 mm - 229 W/m² -
1788283394 36.11° C 47% 1017.2 hPa 0 mm - 300 W/m² -
1788283091 35.56° C 48% 1017.1 hPa 0 mm - 40 W/m² -
1788282791 36.11° C 47% 1017.2 hPa 0 mm - 379 W/m² -
1788282484 35.56° C 47% 1017 hPa 0 mm - 389 W/m² -
1788282179 35° C 50% 1017.3 hPa 0 mm - 145 W/m² -
1788281878 35° C 51% 1017.3 hPa 0 mm - 34 W/m² -
1788281573 34.44° C 50% 1017.3 hPa 0 mm - 120 W/m² -
1788281269 35° C 49% 1017.5 hPa 0 mm - 32 W/m² -
1788280965 36.11° C 47% 1017.6 hPa 0 mm - 37 W/m² -
1788280660 36.11° C 48% 1017.6 hPa 0 mm - 460 W/m² -
1788280359 36.11° C 47% 1017.7 hPa 0 mm - 328 W/m² -
1788280054 35.56° C 49% 1017.6 hPa 0 mm - 341 W/m² -
1788279754 35.56° C 50% 1017.5 hPa 0 mm - 237 W/m² -
1788279452 35.56° C 50% 1017.8 hPa 0 mm - 269 W/m² -
1788279147 35.56° C 50% 1017.8 hPa 0 mm - 426 W/m² -
1788278844 35° C 52% 1017.6 hPa 0 mm - 425 W/m² -
1788278539 34.44° C 53% 1017.6 hPa 0 mm - 414 W/m² -
1788278237 33.89° C 53% 1017.5 hPa 0 mm - 405 W/m² -
1788277933 33.33° C 55% 1017.7 hPa 0 mm - 389 W/m² -
1788277628 33.33° C 56% 1017.6 hPa 0 mm - 388 W/m² -

* Rain latest hour (hover to see other rain measurements)
** Current wind speed in m/s (hover to see current wind gust speed)